Regional Weather Roundup
Issued by NWS

Home | Current Version | Previous Version | Text Only | Print | Product List | Glossary On
Versions: 1 2 3 4 5 6 7 8 9 10 11 12 13 14 15 16 17 18 19 20 21 22 23 24 25 26 27 28 29 30 31 32 33 34 35 36 37 38 39 40 41 42 43 44 45 46 47 48 49 50
178
ASUS42 KTBW 190416
RWRFL
FLORIDA REGIONAL WEATHER ROUNDUP
NATIONAL WEATHER SERVICE TAMPA BAY RUSKIN FL
1100 PM EST SUN FEB 18 2018

NOTE: "FAIR" INDICATES FEW OR NO CLOUDS BELOW 12,000 FEET WITH NO
SIGNIFICANT WEATHER AND/OR OBSTRUCTIONS TO VISIBILITY.

FLZ001>010-012>015-112-114-115-190500-
PANHANDLE FLORIDA

CITY           SKY/WX    TMP DP  RH WIND       PRES   REMARKS
PENSACOLA      MOCLDY    69  67  93 SE5       30.20S
PENSACOLA NAS  FAIR      68  66  93 MISG      30.20S
MILTON NAS     MOCLDY    64  64 100 CALM      30.21S
CRESTVIEW      FAIR      60  58  92 CALM      30.23S
DUKE FIELD     FAIR      63  62  96 S5        30.21F
VALPARAISO     CLEAR     68  68 100 SE5       30.20F
MARY ESTHER    FAIR      69  67  96 CALM      30.20S
PANAMA CITY    FAIR      67  65  93 CALM      30.22S
TYNDALL AFB    FOG       66  66 100 CALM      30.23S VSB 1/4
APALACHICOLA   CLOUDY    67  67 100 S3        30.23F

STATION/POSITION SKY/WX   TEMP    WIND        PRES    WAVE   SWELL
                          AIR SEA DIR/SP/G            HT/PER HT/PER
                          (F)     (DEG/KT/KT) (MB)    (FT/S) (FT/S)
29.2N   88.2W              74     130/ 10/ 14 1022.3F   2/ 3   2/ 6
28.8N   86.0W              73 75  130/ 14/ 17 1022.7F   2/ 3
PANAMA CITY BEAC           69 70  120/  8/ 10 1023.7F
TOWER C                    67     210/  4/  4 1024.2F

$$
FLZ011-016>038-118-127-128-134-139-239-190500-
NORTH FLORIDA

CITY           SKY/WX    TMP DP  RH WIND       PRES   REMARKS
MARIANNA       CLOUDY    73  62  68 S6        30.22F
TALLAHASSEE    FAIR      62  61  96 CALM      30.24R
PERRY          CLOUDY    66  65  97 E3        30.26R
LIVE OAK       CLOUDY    70  63  78 E5        30.28S
CROSS CITY     FAIR      67  65  95 CALM      30.31S
LAKE CITY      FAIR      63  61  94 CALM      30.29R
GAINESVILLE    CLOUDY    65  62  90 E6        30.30S
WILLISTON      CLEAR     64  63  94 CALM      30.27S
PALATKA        CLOUDY    61  61 100 CALM      30.29S FOG
MAYPORT NAS    FOG       62  62 100 N6        30.30S VSB 3/4
JACKSONVILLE   FOG       62  62 100 NE5       30.30S VSB 1/4
JAX NAS        FOG       64  63  96 N6        30.30F VSB 1/4
JAX CECIL      CLOUDY    64  64 100 NE3       30.29S FOG
ST AUGUSTINE   CLOUDY    62  62 100 N6        30.30S FOG
PALM COAST     FAIR      62  62  98 SE5       30.28S FOG

STATION/POSITION SKY/WX   TEMP    WIND        PRES    WAVE   SWELL
                          AIR SEA DIR/SP/G            HT/PER HT/PER
                          (F)     (DEG/KT/KT) (MB)    (FT/S) (FT/S)
SHELL POINT      NOT AVBL
KEATON BEACH               66     100/ 10/ 11 1025.2R
CEDAR KEY                  72     110/ 10/ 11 1025.0S
FERNANDINA                 62 58   30/  4/  6 1027.1S
30.7N   81.3W                 60                N/A     2/10
MAYPORT                    61 58   20/  5/  6 1025.9F
31.4N   80.9W              59 58   40/ 10/ 12 1025.9S   3/10   2/10
ST AUGUSTINE               60 59  350/  8/  9 1025.7R

$$
FLZ040-043>046-052-053-057-058-063-144-190500-
INTERIOR CENTRAL FLORIDA

CITY           SKY/WX    TMP DP  RH WIND       PRES   REMARKS
OCALA          FAIR      65  62  90 CALM      30.28S
LEESBURG       FAIR      70  67  90 E9        30.28S
SANFORD        FAIR      66  64  93 E3        30.28R
ORLANDO EXEC   FAIR      68  67  96 E6        30.27S
ORLANDO INTL   FAIR      68  67  96 E5        30.28R
KISSIMMEE      FAIR      68  67  96 E5        30.28S
WINTER HAVEN   FAIR      70  68  93 E8        30.28R
LAKELAND       CLOUDY    70  66  88 E8        30.27R
BARTOW         FAIR      68  68 100 E8        30.27R
SEBRING        FAIR      70  64  81 E5        30.26S
OKEECHOBEE     FAIR      64  63  94 E3        30.26S

$$
FLZ041-047-054-059-064-141-147-190500-
EAST CENTRAL FLORIDA

CITY           SKY/WX    TMP DP  RH WIND       PRES   REMARKS
DAYTONA BEACH  FAIR      68  67  96 E3        30.28S
DELAND         FAIR      64  64 100 E3        30.28S
JFK SPACE CTR  FAIR      70  70 100 E5        30.26S
CAPE CANAVERAL FAIR      69  67  91 SE8       30.26S
PATRICK AFB    FAIR      72  72 100 SE8       30.26S
MELBOURNE      FAIR      75  69  81 SE9       30.26F
VERO BEACH     FAIR      73  65  75 E9        30.27S
FT PIERCE      FAIR      71  65  81 SE10      30.26F
STUART         FAIR      73  64  73 E10       30.27S

STATION/POSITION SKY/WX   TEMP    WIND        PRES    WAVE   SWELL
                          AIR SEA DIR/SP/G            HT/PER HT/PER
                          (F)     (DEG/KT/KT) (MB)    (FT/S) (FT/S)
28.5N   80.2W              75 74  120/ 10/ 12 1025.3R   2/ 9   2/ 9
TRIDENT PIER               70 69   90/  4/  8 1026.3R
28.4N   80.5W                 70                N/A     2/10
27.5N   80.2W                 75                N/A     2/11

$$
FLZ050-056-061-142-242-148-248-149-249-151-251-155-255-
160-260-190500-
WEST CENTRAL FLORIDA

CITY           SKY/WX    TMP DP  RH WIND       PRES   REMARKS
CRYSTAL RIVER  FAIR      59  59 100 CALM      30.27S
INVERNESS      FAIR      64  63  94 CALM      30.28S
BROOKSVILLE    FAIR      68  62  81 E7        30.27S
CLEARWATER AIR FAIR      66  63  88 E3        30.24F
ST PETE CLEARW FAIR      72  66  81 NE6       30.24F
TAMPA INTL     FAIR      73  63  70 E6        30.25S
TAMPA EXEC     FAIR      64  61  88 E3        30.26S
PLANT CITY     CLOUDY    73  66  78 E3        30.28R
MACDILL AFB    FAIR      66  63  90 NE8       30.24S
PETER O KNIGHT CLOUDY    70  64  83 E6        30.25S
ST PETERSBURG  FAIR      73  66  78 E10       30.23S
SARASOTA       FAIR      70  62  76 NE7       30.22S
VENICE         FAIR      68  59  73 NE6       30.23S

STATION/POSITION SKY/WX   TEMP    WIND        PRES    WAVE   SWELL
                          AIR SEA DIR/SP/G            HT/PER HT/PER
                          (F)     (DEG/KT/KT) (MB)    (FT/S) (FT/S)
27.3N   84.2W                 73                N/A     2/ 5
CLEARWATER BEACH           70 72   50/  5/  8 1023.9F
MIDDLE TAMPA BAY           73      60/ 10/ 11 1024.0F
VENICE                     70 73   60/  5/  6 1023.6F

$$
FLZ066-069-070-075>078-162-262-165-265-190500-
SOUTHWEST FLORIDA AND KEYS

CITY           SKY/WX    TMP DP  RH WIND       PRES   REMARKS
PUNTA GORDA    FAIR      72  63  73 SE9       30.25S
FT MYERS       FAIR      73  63  70 SE7       30.23S
SOUTHWEST INTL FAIR      72  65  78 SE8       30.24R
NAPLES         FAIR      71  63  75 E5        30.23S
MARCO ISLAND   FAIR      69  64  84 E7        30.24S
MARATHON       FAIR      76  64  66 E9        30.20S
KEY WEST NAS   FAIR      74  69  85 E9        30.20S
KEY WEST INTL  FAIR      75  66  73 E8        30.21R

STATION/POSITION SKY/WX   TEMP    WIND        PRES    WAVE   SWELL
                          AIR SEA DIR/SP/G            HT/PER HT/PER
                          (F)     (DEG/KT/KT) (MB)    (FT/S) (FT/S)
NAPLES                        76   80/  2/  3 1023.7F
DRY TORTUGAS               73     100/ 12/ 14 1022.6R
SAND KEY                   76                 1023.2R
MOLASSES REEF              75 77   50/ 13/ 15 1023.3S

$$
FLZ067-068-071>074-168-172>174-190500-
SOUTHEAST FLORIDA

CITY           SKY/WX    TMP DP  RH WIND       PRES   REMARKS
W PALM BEACH   MOCLDY    76  67  73 E10       30.26S
BOCA RATON     PTCLDY    73  64  73 E12       30.25S
FT LAUDER-EXEC FAIR      73  66  78 E9        30.24F
FT LAUDERDALE  FAIR      74  67  78 E15       30.24S
POMPANO BEACH  FAIR      75  66  73 E12       30.25S
PEMBROKE PINES FAIR      73  64  73 E7        30.26S
OPA LOCKA      FAIR      71  65  81 E6        30.25R
MIAMI          FAIR      75  65  70 E10       30.24S
WEST KENDALL   FAIR      70  62  76 E7        30.23S
HOMESTEAD      PTCLDY    74  64  72 E10       30.22S

STATION/POSITION SKY/WX   TEMP    WIND        PRES    WAVE   SWELL
                          AIR SEA DIR/SP/G            HT/PER HT/PER
                          (F)     (DEG/KT/KT) (MB)    (FT/S) (FT/S)
PORT EVERGLADES            76      80/ 10/ 14 1024.1
VIRGINIA KEY               76 78   50/ 13/ 17 1023.1S
LAKE WORTH                 75 76  100/ 13/ 14 1025.4S
FOWEY ROCKS                75 76   70/ 20/ 22 1024.2F
SETTLEMENT POINT           75      90/ 15/ 17 1025.1R

$$





USA.gov is the U.S. government's official web portal to all federal, state and local government web resources and services.